SCP
0 0 0 0 0 0 0 0 0 -0 0 -0 0 0 0 0 0 0 1 1 0 1 1 -0 1 2 1 1 2 2 2 2
0 -0 -0 0 0 0 0 0 0 0 0 0 0 0 0 1 1 1 1 1 1 0 -1 0 1 1 1 1 1 2 2 1
0 0 0 0 0 0 0 0 0 0 0 0 1 1 1 1 1 1 0 1 1 0 0 -0 0 0 0 0 0 1 -0 -1
0 -0 -0 0 0 0 0 -0 -0 0 0 0 0 0 1 1 1 1 1 0 0 0 0 0 0 0 0 0 0 0 0 0
0 -0 0 0 0 0 0 0 0 0 0 1 1 2 2 1 2 2 1 1 0 0 0 0 0 0 0 0 0 0 1 0
0 0 -0 0 0 0 0 0 0 0 1 3 2 1 2 2 1 1 1 1 1 1 0 1 0 0 1 0 0 0 0 0
0 0 0 0 0 0 0 0 0 0 1 1 1 0 0 0 1 1 0 0 0 0 1 1 1 1 1 1 0 1 1 0
0 0 0 0 0 0 0 0 0 0 2 1 1 1 1 1 0 1 0 0 0 0 0 1 1 1 1 1 0 1 1 1
0 0 0 0 0 0 0 0 0 -0 1 0 2 5 4 3 3 2 1 1 1 1 0 1 1 1 1 1 1 1 1 1
0 0 0 0 0 0 -0 0 1 2 2 3 7 6 5 4 2 1 1 1 1 2 3 2 1 1 2 2 2 2 2 2
0 0 0 0 0 -0 -0 0 0 0 0 3 3 3 2 1 0 1 0 1 1 1 2 3 2 2 2 4 3 2 3 1
0 0 0 -0 -0 -0 -0 -0 -0 0 0 0 3 1 2 1 1 1 0 1 1 1 1 1 1 0 0 0 0 0 0 0
0 -0 -0 -0 0 0 -0 0 0 0 0 1 0 1 0 0 0 0 1 1 1 1 1 1 0 0 0 0 0 0 0 0
0 0 0 0 0 0 -0 0 0 0 0 0 0 0 0 -0 0 0 1 1 1 1 1 1 0 0 0 0 0 0 0 0
0 0 0 0 1 1 1 -0 -0 0 0 0 0 -0 0 0 0 0 1 1 1 1 1 2 1 0 1 1 0 0 0 0
-0 -0 0 -0 0 0 0 0 0 0 0 0 0 0 0 0 0 0 0 0 1 1 1 0 0 0 0 0 1 1 0 0
0 0 0 0 0 0 0 0 0 0 0 0 0 0 0 0 0 0 0 0 0 0 0 0 0 0 0 0 0 0 0 1
0 0 0 0 0 0 0 0 0 0 0 0 0 0 0 0 0 0 0 0 0 0 0 0 0 0 0 0 0 0 0 0
-0 0 -0 -0 -0 -0 -0 0 0 0 0 0 0 0 0 0 0 0 0 0 0 0 0 0 0 0 0 0 -0 0 0 0
Wind_Speed_500mb
42 41 28 15 13 14 11 17 9 12 20 14 25 18 6 25 43 49 51 51 81 85 85 81 74 69 60 52 41 18 15 8
29 26 32 22 16 7 5 10 13 14 7 7 8 20 31 26 36 56 62 75 73 74 70 62 57 49 42 33 34 19 18 18
28 35 29 12 12 9 8 9 12 8 7 7 14 26 21 20 46 58 71 71 66 57 45 37 33 30 32 29 34 25 24 26
27 32 27 17 26 23 11 17 8 11 11 15 13 20 28 32 39 50 57 61 52 47 44 41 32 24 32 30 29 35 36 25
21 21 19 10 21 17 14 8 17 9 9 20 18 25 42 35 33 41 39 43 53 49 42 38 32 27 29 34 33 51 41 24
11 18 11 12 21 15 14 11 16 12 9 10 15 16 44 53 22 30 35 42 45 37 37 37 31 32 35 39 37 43 36 25
18 14 15 27 4 23 14 13 12 16 18 15 17 11 28 37 19 29 34 32 33 30 30 35 31 36 38 42 39 42 42 32
15 15 19 14 25 40 35 22 15 16 8 12 19 28 39 43 43 32 28 25 26 21 23 20 28 33 32 38 37 48 40 37
13 37 29 5 6 7 10 57 4 9 10 13 12 16 20 42 56 51 31 20 17 23 29 28 29 31 27 27 29 37 34 38
8 19 9 6 6 28 27 57 29 39 31 21 17 40 55 48 45 42 29 21 22 25 23 15 26 27 27 28 27 32 39 39
7 10 20 11 13 7 12 26 39 42 34 24 38 45 43 50 47 40 31 29 16 9 6 8 6 4 37 30 27 30 34 35
13 11 14 3 15 20 14 13 23 18 55 38 25 12 16 43 38 22 20 24 20 21 13 3 8 10 1 28 33 35 35 34
6 10 12 20 19 29 2 13 44 43 14 34 3 10 19 31 25 17 25 17 12 12 17 20 21 22 12 14 24 30 35 28
9 9 12 55 18 10 15 44 51 63 53 35 37 23 16 10 13 17 16 15 19 15 16 24 22 19 17 18 16 26 32 34
4 7 28 63 26 36 40 55 50 57 40 42 38 38 25 20 20 24 22 19 16 18 15 21 26 19 16 18 19 25 28 30
5 10 5 17 25 25 25 42 44 43 39 40 35 31 26 24 21 20 21 17 9 9 14 19 18 14 14 19 21 22 23 23
9 14 2 17 37 34 28 36 37 34 31 27 28 35 32 25 17 17 18 18 15 15 16 21 23 24 21 21 26 32 22 19
2 21 11 10 10 18 14 23 21 25 33 31 25 23 19 19 17 17 21 20 23 28 27 27 28 30 30 32 26 22 22 20
22 39 25 25 21 22 8 12 23 32 23 17 22 22 25 22 17 15 17 16 21 25 27 27 29 32 34 41 47 41 36 30
Wind_Direction_500mb
237 252 249 251 239 212 212 241 281 259 290 319 88 101 26 102 129 119 122 145 161 175 181 182 185 193 200 211 209 189 187 142
265 256 243 181 194 266 300 197 269 283 290 243 21 124 129 111 114 113 125 137 154 167 175 176 180 194 209 209 193 204 199 168
242 252 251 237 208 222 158 165 203 256 319 235 87 123 119 121 135 129 134 144 153 160 165 178 185 193 202 195 205 219 200 184
234 253 259 226 203 182 187 273 218 170 230 284 138 143 132 138 136 141 139 142 148 151 156 169 179 197 199 188 195 187 181 200
263 261 254 344 275 182 178 132 230 159 227 3 53 54 28 124 137 137 150 147 157 155 161 175 192 195 196 206 208 185 193 228
239 220 206 199 243 249 169 191 235 222 137 325 34 61 74 18 128 145 146 127 139 147 160 175 193 201 204 216 220 211 212 223
303 335 321 213 339 319 308 233 176 189 143 205 146 122 124 111 281 135 147 149 144 149 152 171 174 195 209 218 225 227 221 224
299 325 320 334 189 252 268 268 262 171 178 139 162 154 99 136 161 138 152 158 152 169 186 188 204 216 231 236 230 222 223 222
309 356 321 54 14 30 335 354 231 134 135 131 138 88 60 91 81 71 64 75 149 190 197 205 222 238 243 232 224 228 233 221
300 1 343 167 150 59 89 24 16 110 137 150 116 100 81 66 70 67 57 48 72 104 120 166 230 251 241 241 247 243 240 228
56 315 278 247 50 65 96 39 5 3 337 63 77 73 55 67 76 67 59 52 58 66 63 133 165 346 226 235 252 263 252 247
162 212 261 265 70 178 145 115 120 3 331 326 25 42 11 43 58 65 55 50 49 43 52 298 280 315 211 227 235 233 243 249
260 236 267 25 2 313 152 142 154 136 303 287 99 96 19 35 51 64 71 60 46 10 11 30 19 23 346 269 239 244 264 296
327 353 330 349 345 49 127 143 128 123 140 118 140 131 120 105 66 65 70 69 64 48 48 39 22 22 20 348 314 277 279 302
191 211 326 345 8 67 109 126 132 113 132 135 126 128 131 112 83 70 73 76 66 55 61 64 61 39 20 2 343 323 322 333
188 211 241 311 312 86 81 91 104 117 126 114 119 127 97 89 86 65 50 48 43 25 21 22 23 27 3 355 351 337 336 330
304 351 132 12 317 71 63 74 77 83 89 111 102 113 106 99 78 54 34 25 34 32 29 13 7 19 11 341 317 313 318 319
247 308 236 117 291 9 34 79 83 88 77 72 71 69 69 65 54 42 26 32 39 41 39 34 35 43 38 24 10 356 342 305
151 136 137 122 175 184 182 121 138 115 100 87 58 60 55 51 44 44 22 44 40 46 56 51 45 47 48 42 40 38 32 16
Wind_Speed_850mb
42 41 28 15 13 14 11 17 9 12 20 14 25 18 6 25 43 49 51 51 81 85 85 81 74 69 60 52 41 18 15 8
29 26 32 22 16 7 5 10 13 14 7 7 8 20 31 26 36 56 62 75 73 74 70 62 57 49 42 33 34 19 18 18
28 35 29 12 12 9 8 9 12 8 7 7 14 26 21 20 46 58 71 71 66 57 45 37 33 30 32 29 34 25 24 26
27 32 27 17 26 23 11 17 8 11 11 15 13 20 28 32 39 50 57 61 52 47 44 41 32 24 32 30 29 35 36 25
21 21 19 10 21 17 14 8 17 9 9 20 18 25 42 35 33 41 39 43 53 49 42 38 32 27 29 34 33 51 41 24
11 18 11 12 21 15 14 11 16 12 9 10 15 16 44 53 22 30 35 42 45 37 37 37 31 32 35 39 37 43 36 25
18 14 15 27 4 23 14 13 12 16 18 15 17 11 28 37 19 29 34 32 33 30 30 35 31 36 38 42 39 42 42 32
15 15 19 14 25 40 35 22 15 16 8 12 19 28 39 43 43 32 28 25 26 21 23 20 28 33 32 38 37 48 40 37
13 37 29 5 6 7 10 57 4 9 10 13 12 16 20 42 56 51 31 20 17 23 29 28 29 31 27 27 29 37 34 38
8 19 9 6 6 28 27 57 29 39 31 21 17 40 55 48 45 42 29 21 22 25 23 15 26 27 27 28 27 32 39 39
7 10 20 11 13 7 12 26 39 42 34 24 38 45 43 50 47 40 31 29 16 9 6 8 6 4 37 30 27 30 34 35
13 11 14 3 15 20 14 13 23 18 55 38 25 12 16 43 38 22 20 24 20 21 13 3 8 10 1 28 33 35 35 34
6 10 12 20 19 29 2 13 44 43 14 34 3 10 19 31 25 17 25 17 12 12 17 20 21 22 12 14 24 30 35 28
9 9 12 55 18 10 15 44 51 63 53 35 37 23 16 10 13 17 16 15 19 15 16 24 22 19 17 18 16 26 32 34
4 7 28 63 26 36 40 55 50 57 40 42 38 38 25 20 20 24 22 19 16 18 15 21 26 19 16 18 19 25 28 30
5 10 5 17 25 25 25 42 44 43 39 40 35 31 26 24 21 20 21 17 9 9 14 19 18 14 14 19 21 22 23 23
9 14 2 17 37 34 28 36 37 34 31 27 28 35 32 25 17 17 18 18 15 15 16 21 23 24 21 21 26 32 22 19
2 21 11 10 10 18 14 23 21 25 33 31 25 23 19 19 17 17 21 20 23 28 27 27 28 30 30 32 26 22 22 20
22 39 25 25 21 22 8 12 23 32 23 17 22 22 25 22 17 15 17 16 21 25 27 27 29 32 34 41 47 41 36 30
Wind_Direction_850mb
237 252 249 251 239 212 212 241 281 259 290 319 88 101 26 102 129 119 122 145 161 175 181 182 185 193 200 211 209 189 187 142
265 256 243 181 194 266 300 197 269 283 290 243 21 124 129 111 114 113 125 137 154 167 175 176 180 194 209 209 193 204 199 168
242 252 251 237 208 222 158 165 203 256 319 235 87 123 119 121 135 129 134 144 153 160 165 178 185 193 202 195 205 219 200 184
234 253 259 226 203 182 187 273 218 170 230 284 138 143 132 138 136 141 139 142 148 151 156 169 179 197 199 188 195 187 181 200
263 261 254 344 275 182 178 132 230 159 227 3 53 54 28 124 137 137 150 147 157 155 161 175 192 195 196 206 208 185 193 228
239 220 206 199 243 249 169 191 235 222 137 325 34 61 74 18 128 145 146 127 139 147 160 175 193 201 204 216 220 211 212 223
303 335 321 213 339 319 308 233 176 189 143 205 146 122 124 111 281 135 147 149 144 149 152 171 174 195 209 218 225 227 221 224
299 325 320 334 189 252 268 268 262 171 178 139 162 154 99 136 161 138 152 158 152 169 186 188 204 216 231 236 230 222 223 222
309 356 321 54 14 30 335 354 231 134 135 131 138 88 60 91 81 71 64 75 149 190 197 205 222 238 243 232 224 228 233 221
300 1 343 167 150 59 89 24 16 110 137 150 116 100 81 66 70 67 57 48 72 104 120 166 230 251 241 241 247 243 240 228
56 315 278 247 50 65 96 39 5 3 337 63 77 73 55 67 76 67 59 52 58 66 63 133 165 346 226 235 252 263 252 247
162 212 261 265 70 178 145 115 120 3 331 326 25 42 11 43 58 65 55 50 49 43 52 298 280 315 211 227 235 233 243 249
260 236 267 25 2 313 152 142 154 136 303 287 99 96 19 35 51 64 71 60 46 10 11 30 19 23 346 269 239 244 264 296
327 353 330 349 345 49 127 143 128 123 140 118 140 131 120 105 66 65 70 69 64 48 48 39 22 22 20 348 314 277 279 302
191 211 326 345 8 67 109 126 132 113 132 135 126 128 131 112 83 70 73 76 66 55 61 64 61 39 20 2 343 323 322 333
188 211 241 311 312 86 81 91 104 117 126 114 119 127 97 89 86 65 50 48 43 25 21 22 23 27 3 355 351 337 336 330
304 351 132 12 317 71 63 74 77 83 89 111 102 113 106 99 78 54 34 25 34 32 29 13 7 19 11 341 317 313 318 319
247 308 236 117 291 9 34 79 83 88 77 72 71 69 69 65 54 42 26 32 39 41 39 34 35 43 38 24 10 356 342 305
151 136 137 122 175 184 182 121 138 115 100 87 58 60 55 51 44 44 22 44 40 46 56 51 45 47 48 42 40 38 32 16